Simultaneous Nadir Overpasses (SNOs) Predictions

Prediction of SNOs between AQUA and METOP-A Satellite Orbit:

Table of predicted SNOs for the next 14.0 days since TLE Epoch: 8/17/2012
Index Date (AQUA) Time (AQUA) AQUA Lat,Lon Date (METOP-A) Time (METOP-A) METOP-A Lat,Lon Distance(km) Time Diff (sec)
1 08/19/2012 06:01:57 -73.26, -95.11 08/19/2012 06:00:49 -73.21, -97.33 71.39 68
2 08/19/2012 06:51:35 73.81, 71.37 08/19/2012 06:51:17 73.82, 71.38 0.99 18
3 08/19/2012 07:41:02 -73.88,-121.16 08/19/2012 07:41:57 -73.89,-121.11 1.49 55
4 08/22/2012 01:36:18 -73.54, -29.26 08/22/2012 01:35:07 -73.48, -30.33 34.51 71
5 08/22/2012 02:25:51 73.83, 137.75 08/22/2012 02:25:40 73.83, 137.82 2.14 11
6 08/22/2012 03:15:18 -73.90, -54.76 08/22/2012 03:16:20 -73.91, -54.67 2.93 62
7 08/24/2012 21:10:37 -73.73, 36.77 08/24/2012 21:09:25 -73.75, 36.69 3.28 72
8 08/24/2012 22:00:06 73.81,-155.78 08/24/2012 22:00:04 73.80,-155.86 3.02 2
9 08/24/2012 22:49:33 -73.88, 11.72 08/24/2012 22:50:44 -73.88, 11.65 1.98 71
10 08/27/2012 16:44:52 -73.78, 103.09 08/27/2012 16:43:47 -73.76, 103.13 1.99 65
11 08/27/2012 17:34:20 73.82, -89.35 08/27/2012 17:34:26 73.81, -89.42 2.23 6
12 08/27/2012 18:23:51 -74.08, 77.69 08/27/2012 18:25:02 -74.09, 78.58 27.07 71
13 08/30/2012 12:19:07 -73.79, 169.50 08/30/2012 12:18:10 -73.78, 169.56 2.72 57
14 08/30/2012 13:08:35 73.84, -22.96 08/30/2012 13:08:49 73.82, -22.99 1.63 14




NCC Satellite Simultaneous Nadir Overpasses (SNOs) Prediction Service
